Location: Ellingshausen
(50.5460°N, 10.4723°E)
Time: 19:54:41
(UTC+00:00)

COSMOS 2406 - Pass Details

Date: 18 January 2026
Orbit: 843 x 861 km, 71.0° (Epoch: 16 February)

Event Time Altitude Azimuth Distance (km) Brightness Sun altitude
Exits shadow 05:57:53 - 322° (NW) 2,580 5.2 -11.2°
Reaches altitude 10° 05:58:07 10° 321° (NW) 2,498 5.1 -11.2°
Maximum altitude 06:03:34 47° 250° (WSW) 1,130 3.6 -10.4°
Drops below altitude 10° 06:09:01 10° 178° (S) 2,490 6.0 -9.6°
Sets 06:11:33 0° 173° (S) 3,423 6.8 -9.2°
